,

(GMT )
Osoyoos

Weather History for CWYY - March, 2013

Change the Weather History Date:

Monday, March 4, 2013

  Actual Average Record
Temperature  
Mean Temperature 38 °F -  
Max Temperature 49 °F - - ()
Min Temperature 27 °F - - ()
Degree Days  
Heating Degree Days 27    
Moisture  
Dew Point 25 °F    
Average Humidity 58    
Maximum Humidity 87    
Minimum Humidity 23    
Precipitation  
Precipitation 0.00 in - - ()
Sea Level Pressure  
Sea Level Pressure 30.25 in    
Wind  
Wind Speed 2 mph ()    
Max Wind Speed 7 mph    
Max Gust Speed -    
T = Trace of Precipitation, MM = Missing Value Source: Averaged Metar Reports

Daily Weather History Graph

Daily Weather History Graph

Search for Another Location

Airport or City:

Trip Planner

Search our weather history database for the weather conditions in past years. The results will help you decide how hot, cold, wet, or windy it might be!

Date:

Astronomy

Mar. 04, 2013 Rise Set
Actual Time 6:33 AM PST 5:46 PM PST
Civil Twilight 6:01 AM PST 6:18 PM PST
Nautical Twilight 5:24 AM PST 6:54 PM PST
Astronomical Twilight 4:47 AM PST 7:31 PM PST
Moon 1:10 AM PST (3/4) 10:09 AM PST (3/4)
Length of Visible Light 12h 16m
Length of Day
11h 13m
Waning Gibbous, 51% of the Moon is Illuminated
Mar 4
Waning Gibbous
Mar 4
Last Quarter
Mar 11
New
Mar 19
First Quarter
Mar 27
Full

Hourly Weather History & Observations

Time (PST) Temp. Windchill Dew Point Humidity Pressure Visibility Wind Dir Wind Speed Gust Speed Precip Events Conditions
12:00 AM 35.4 °F 32.6 °F 26.1 °F 69% 30.27 in - North 3.5 mph - N/A   Unknown
1:00 AM 34.3 °F 31.4 °F 26.8 °F 74% 30.29 in - NE 3.5 mph - N/A   Unknown
2:00 AM 34.5 °F - 24.1 °F 66% 30.30 in - Calm Calm - N/A   Unknown
3:00 AM 29.8 °F - 24.4 °F 80% 30.31 in - NE 1.2 mph - N/A   Unknown
4:00 AM 31 °F - 26 °F 75% 30.32 in - Calm Calm - -  
4:00 AM 31.3 °F - 26.1 °F 81% 30.32 in - Calm Calm - N/A   Unknown
5:00 AM 31.5 °F - 26.2 °F 81% 30.32 in - SW 1.2 mph - N/A   Unknown
6:00 AM 30.9 °F - 25.9 °F 82% 30.33 in - ESE 2.3 mph - N/A   Unknown
7:00 AM 27.3 °F - 23.9 °F 87% 30.34 in - East 1.2 mph - N/A   Unknown
8:00 AM 31.6 °F - 27.7 °F 85% 30.34 in - Calm Calm - N/A   Unknown
9:00 AM 36.3 °F - 25.9 °F 66% 30.33 in - NNE 2.3 mph - N/A   Unknown
10:00 AM 40 °F - 23 °F 38% 30.32 in - SW 2.3 mph - -  
10:00 AM 39.9 °F - 23.2 °F 51% 30.32 in - SW 2.3 mph - N/A   Unknown
11:00 AM 41.4 °F 39.4 °F 24.3 °F 51% 30.30 in - SW 3.5 mph - N/A   Unknown
12:00 PM 44.4 °F - 24.8 °F 46% 30.28 in - SSW 2.3 mph - N/A   Unknown
1:00 PM 47.1 °F - 22.6 °F 38% 30.25 in - South 4.6 mph - N/A   Unknown
2:00 PM 46.2 °F 45.0 °F 21.2 °F 37% 30.22 in - South 3.5 mph - N/A   Unknown
3:00 PM 48.6 °F - 20.3 °F 33% 30.20 in - SSE 6.9 mph - N/A   Unknown
4:00 PM 47 °F - 21 °F 23% 30.18 in - South 5.8 mph - -  
4:00 PM 47.3 °F - 21.4 °F 36% 30.18 in - South 5.8 mph - N/A   Unknown
5:00 PM 45.0 °F 43.5 °F 24.8 °F 45% 30.17 in - South 3.5 mph - N/A   Unknown
6:00 PM 44.4 °F 42.9 °F 23.5 °F 44% 30.16 in - SSE 3.5 mph - N/A   Unknown
7:00 PM 43.3 °F 41.7 °F 24.1 °F 47% 30.15 in - ESE 3.5 mph - N/A   Unknown
8:00 PM 41.4 °F - 26.8 °F 56% 30.14 in - SSW 2.3 mph - N/A   Unknown
9:00 PM 40.5 °F - 30.2 °F 67% 30.13 in - SW 1.2 mph - N/A   Unknown
10:00 PM 41.5 °F 39.6 °F 25.7 °F 53% 30.12 in - South 3.5 mph - N/A   Unknown
11:00 PM 40.5 °F - 27.5 °F 60% 30.11 in - SSW 2.3 mph - N/A   Unknown